CRK399 ZBAD-VHHH

Flight info

Callsign CRK399
Flight time N/A
Altitude 38100
Route OMDEK7F OMDEK W37 GUSIV/K0820S1130 W37 PEXID/K0828S1160 W37 OMBEB/K0819S1130 R473 NNX/K0828S1160 R473 WYN W18 NLG W23 ZUH R473 SIERA
Aircraft A320/M-SDE3FGHIRWY/LB1

Departure

Time 2026-04-25 10:07
Airport Beijing Daxing International Airport (ZBAD)

Arrival

Time N/A
Airport Hong Kong International Airport (VHHH)
Time Latitude Longitude Altitude Speed Heading
2026-04-25 09:40 39.50420 116.41044 85 ft 0 kts 43°
2026-04-25 09:51 39.50415 116.41038 90 ft 4 kts 43°
2026-04-25 09:51 39.50396 116.41014 87 ft 4 kts 43°
2026-04-25 09:51 39.50375 116.40998 87 ft 4 kts
2026-04-25 09:51 39.50349 116.41002 88 ft 4 kts 354°
2026-04-25 09:52 39.50322 116.41003 87 ft 4 kts
2026-04-25 09:52 39.50297 116.40996 87 ft 4 kts 32°
2026-04-25 09:52 39.50283 116.40976 87 ft 1 kts 83°
2026-04-25 09:52 39.50282 116.40970 87 ft 0 kts 83°
2026-04-25 09:55 39.50284 116.40987 88 ft 4 kts 83°
2026-04-25 09:55 39.50289 116.41038 87 ft 6 kts 83°
2026-04-25 09:56 39.50294 116.41088 85 ft 5 kts 83°
2026-04-25 09:56 39.50298 116.41129 85 ft 4 kts 83°
2026-04-25 09:56 39.50285 116.41184 88 ft 9 kts 130°
2026-04-25 09:56 39.50223 116.41201 87 ft 10 kts 185°
2026-04-25 09:57 39.50191 116.41135 85 ft 10 kts 264°
2026-04-25 09:57 39.50184 116.41049 88 ft 9 kts 264°
2026-04-25 09:57 39.50177 116.40964 85 ft 9 kts 264°
2026-04-25 09:57 39.50169 116.40879 87 ft 10 kts 263°
2026-04-25 09:58 39.50160 116.40785 86 ft 11 kts 262°
2026-04-25 09:58 39.50149 116.40684 85 ft 12 kts 263°
2026-04-25 09:58 39.50139 116.40572 86 ft 14 kts 263°
2026-04-25 09:58 39.50127 116.40441 89 ft 15 kts 262°
2026-04-25 09:59 39.50112 116.40302 89 ft 16 kts 262°
2026-04-25 09:59 39.50133 116.40216 87 ft 9 kts 340°
2026-04-25 09:59 39.50189 116.40207 87 ft 8 kts 353°
2026-04-25 09:59 39.50239 116.40200 87 ft 7 kts 353°
2026-04-25 10:00 39.50289 116.40192 90 ft 9 kts 353°
2026-04-25 10:00 39.50368 116.40179 87 ft 14 kts 353°
2026-04-25 10:00 39.50476 116.40162 86 ft 15 kts 353°
2026-04-25 10:00 39.50576 116.40146 87 ft 14 kts 353°
2026-04-25 10:01 39.50669 116.40131 87 ft 13 kts 353°
2026-04-25 10:01 39.50752 116.40118 87 ft 11 kts 353°
2026-04-25 10:01 39.50826 116.40107 86 ft 10 kts 353°
2026-04-25 10:01 39.50893 116.40096 88 ft 9 kts 353°
2026-04-25 10:02 39.50964 116.40084 87 ft 12 kts 352°
2026-04-25 10:02 39.51052 116.40070 88 ft 12 kts 353°
2026-04-25 10:02 39.51132 116.40057 86 ft 11 kts 353°
2026-04-25 10:02 39.51217 116.40044 90 ft 14 kts 353°
2026-04-25 10:03 39.51326 116.40027 89 ft 18 kts 353°
2026-04-25 10:03 39.51444 116.40009 86 ft 16 kts 353°
2026-04-25 10:03 39.51550 116.39992 87 ft 15 kts 353°
2026-04-25 10:03 39.51644 116.39976 87 ft 13 kts 353°
2026-04-25 10:04 39.51729 116.39962 89 ft 12 kts 353°
2026-04-25 10:04 39.51801 116.39939 86 ft 10 kts 318°
2026-04-25 10:04 39.51804 116.39864 87 ft 9 kts 259°
2026-04-25 10:04 39.51794 116.39774 91 ft 11 kts 262°
2026-04-25 10:05 39.51785 116.39686 98 ft 9 kts 262°
2026-04-25 10:05 39.51752 116.39618 97 ft 10 kts 189°
2026-04-25 10:05 39.51679 116.39633 97 ft 6 kts 173°
2026-04-25 10:05 39.51676 116.39633 97 ft 0 kts 173°
2026-04-25 10:07 39.51489 116.39661 97 ft 63 kts 174°
2026-04-25 10:07 39.50836 116.39764 96 ft 124 kts 173°
2026-04-25 10:07 39.49805 116.39923 131 ft 168 kts 173°
2026-04-25 10:07 39.48659 116.40130 754 ft 164 kts 175°
2026-04-25 10:08 39.47521 116.40329 1504 ft 165 kts 178°
2026-04-25 10:08 39.46385 116.40501 2250 ft 163 kts 177°
2026-04-25 10:08 39.45215 116.40680 2744 ft 176 kts 178°
2026-04-25 10:08 39.43964 116.40866 3149 ft 192 kts 178°
2026-04-25 10:09 39.42548 116.41056 3455 ft 217 kts 178°
2026-04-25 10:09 39.40959 116.41275 3862 ft 241 kts 179°
2026-04-25 10:09 39.39235 116.41526 4542 ft 254 kts 178°
2026-04-25 10:09 39.37453 116.41798 5382 ft 260 kts 177°
2026-04-25 10:10 39.35626 116.42084 6211 ft 267 kts 177°
2026-04-25 10:10 39.33785 116.42375 6980 ft 272 kts 177°
2026-04-25 10:10 39.31876 116.42676 7787 ft 278 kts 177°
2026-04-25 10:10 39.29936 116.42983 8581 ft 284 kts 176°
2026-04-25 10:11 39.27940 116.43300 9373 ft 291 kts 177°
2026-04-25 10:11 39.25899 116.43621 10047 ft 300 kts 177°
2026-04-25 10:11 39.23743 116.43953 10336 ft 324 kts 176°
2026-04-25 10:11 39.21431 116.44304 10678 ft 342 kts 176°
2026-04-25 10:12 39.19036 116.44673 11315 ft 350 kts 176°
2026-04-25 10:12 39.16596 116.45053 12026 ft 355 kts 176°
2026-04-25 10:12 39.11622 116.45806 13485 ft 363 kts 180°
2026-04-25 10:13 39.09099 116.45667 14138 ft 363 kts 192°
2026-04-25 10:13 39.06653 116.44850 14784 ft 362 kts 204°
2026-04-25 10:13 39.04436 116.43429 15405 ft 361 kts 216°
2026-04-25 10:13 39.02360 116.41585 16080 ft 362 kts 218°
2026-04-25 10:14 39.00282 116.39726 16743 ft 365 kts 218°
2026-04-25 10:14 38.98178 116.37856 17431 ft 367 kts 218°
2026-04-25 10:14 38.96063 116.35982 18103 ft 369 kts 218°
2026-04-25 10:14 38.93964 116.34126 18664 ft 372 kts 218°
2026-04-25 10:15 38.91821 116.32232 19209 ft 376 kts 219°
2026-04-25 10:15 38.89649 116.30311 19737 ft 379 kts 219°
2026-04-25 10:15 38.87459 116.28378 20266 ft 383 kts 219°
2026-04-25 10:15 38.85252 116.26428 20802 ft 387 kts 219°
2026-04-25 10:16 38.83013 116.24450 21294 ft 392 kts 219°
2026-04-25 10:16 38.80752 116.22457 21814 ft 396 kts 219°
2026-04-25 10:16 38.78468 116.20448 22331 ft 400 kts 219°
2026-04-25 10:16 38.76155 116.18417 22841 ft 403 kts 220°
2026-04-25 10:17 38.73859 116.16403 23332 ft 407 kts 220°
2026-04-25 10:17 38.71512 116.14346 23755 ft 410 kts 220°
2026-04-25 10:17 38.69148 116.12275 24188 ft 412 kts 220°
2026-04-25 10:17 38.66761 116.10202 24598 ft 416 kts 218°
2026-04-25 10:18 38.64177 116.08458 24982 ft 425 kts 208°
2026-04-25 10:18 38.61384 116.07099 25360 ft 430 kts 206°
2026-04-25 10:18 38.58562 116.05758 25736 ft 433 kts 206°
2026-04-25 10:18 38.55724 116.04408 26111 ft 435 kts 206°
2026-04-25 10:19 38.52912 116.03069 26461 ft 438 kts 206°
2026-04-25 10:19 38.50050 116.01704 26821 ft 440 kts 206°
2026-04-25 10:19 38.47159 116.00328 27162 ft 443 kts 206°
2026-04-25 10:19 38.44255 115.98944 27506 ft 446 kts 206°
2026-04-25 10:20 38.41333 115.97550 27846 ft 449 kts 206°
2026-04-25 10:20 38.38387 115.96144 28171 ft 452 kts 206°
2026-04-25 10:20 38.35426 115.94736 28474 ft 455 kts 206°
2026-04-25 10:20 38.32482 115.93342 28745 ft 458 kts 206°
2026-04-25 10:21 38.29464 115.91959 29040 ft 463 kts 202°
2026-04-25 10:21 38.26286 115.91009 29328 ft 472 kts 193°
2026-04-25 10:21 38.24117 115.90649 29514 ft 475 kts 192°
2026-04-25 10:21 38.19701 115.89959 29888 ft 479 kts 192°
2026-04-25 10:22 38.17508 115.89617 30049 ft 480 kts 192°
2026-04-25 10:22 38.14175 115.89096 30272 ft 483 kts 192°
2026-04-25 10:22 38.09732 115.88403 30555 ft 486 kts 192°
2026-04-25 10:22 38.07496 115.88055 30699 ft 487 kts 192°
2026-04-25 10:23 38.04119 115.87527 30906 ft 489 kts 192°
2026-04-25 10:23 38.00728 115.86997 31108 ft 491 kts 192°
2026-04-25 10:23 37.97333 115.86466 31389 ft 491 kts 192°
2026-04-25 10:23 37.93931 115.85938 31656 ft 492 kts 192°
2026-04-25 10:24 37.90521 115.85412 31912 ft 492 kts 192°
2026-04-25 10:24 37.87105 115.84881 32196 ft 492 kts 192°
2026-04-25 10:24 37.83742 115.84340 32478 ft 493 kts 193°
2026-04-25 10:24 37.80330 115.83776 32752 ft 493 kts 193°
2026-04-25 10:25 37.76913 115.83203 33026 ft 493 kts 193°
2026-04-25 10:25 37.73528 115.82535 33293 ft 489 kts 198°
2026-04-25 10:25 37.70275 115.81370 33551 ft 483 kts 207°
2026-04-25 10:25 37.67195 115.79726 33802 ft 478 kts 212°
2026-04-25 10:26 37.64167 115.77988 34067 ft 479 kts 211°
2026-04-25 10:26 37.61127 115.76251 34325 ft 479 kts 211°
2026-04-25 10:26 37.58120 115.74539 34577 ft 478 kts 211°
2026-04-25 10:26 37.55084 115.72813 34824 ft 478 kts 211°
2026-04-25 10:27 37.52042 115.71081 35021 ft 479 kts 211°
2026-04-25 10:27 37.48999 115.69350 35234 ft 479 kts 211°
2026-04-25 10:27 37.45950 115.67619 35456 ft 479 kts 211°
2026-04-25 10:27 37.42906 115.65890 35675 ft 479 kts 211°
2026-04-25 10:28 37.39864 115.64143 35892 ft 478 kts 211°
2026-04-25 10:28 37.36889 115.62391 36099 ft 477 kts 212°
2026-04-25 10:28 37.33887 115.60590 36312 ft 477 kts 212°
2026-04-25 10:28 37.30890 115.58775 36482 ft 477 kts 212°
2026-04-25 10:29 37.27893 115.56961 36666 ft 477 kts 212°
2026-04-25 10:29 37.24898 115.55161 36850 ft 478 kts 212°
2026-04-25 10:29 37.21887 115.53365 37043 ft 478 kts 212°
2026-04-25 10:29 37.18878 115.51579 37216 ft 478 kts 212°
2026-04-25 10:30 37.15860 115.49788 37372 ft 478 kts 211°
2026-04-25 10:30 37.12851 115.48006 37509 ft 479 kts 211°
2026-04-25 10:30 37.09871 115.46243 37650 ft 479 kts 211°
2026-04-25 10:30 37.06851 115.44456 37808 ft 480 kts 211°
2026-04-25 10:31 37.03836 115.42675 37968 ft 480 kts 211°
2026-04-25 10:31 36.97785 115.39110 37986 ft 480 kts 211°
2026-04-25 10:32 36.91726 115.35541 37991 ft 480 kts 211°
2026-04-25 10:32 36.85674 115.31983 37994 ft 480 kts 211°
2026-04-25 10:33 36.79617 115.28433 37994 ft 481 kts 210°
2026-04-25 10:33 36.73554 115.24880 37993 ft 481 kts 210°
2026-04-25 10:34 36.67533 115.21352 38007 ft 481 kts 210°
2026-04-25 10:34 36.61452 115.17799 38016 ft 481 kts 210°
2026-04-25 10:35 36.55390 115.14258 38015 ft 480 kts 210°
2026-04-25 10:35 36.49373 115.10756 38024 ft 479 kts 210°
2026-04-25 10:36 36.43320 115.07245 38028 ft 479 kts 210°
2026-04-25 10:36 36.37218 115.03866 38027 ft 482 kts 202°
2026-04-25 10:37 36.30607 115.02253 38032 ft 487 kts 187°
2026-04-25 10:37 36.23879 115.01576 38034 ft 487 kts 187°
2026-04-25 10:38 36.17115 115.00883 38019 ft 487 kts 187°
2026-04-25 10:38 36.10342 115.00192 38009 ft 489 kts 187°
2026-04-25 10:39 36.03548 114.99501 38010 ft 489 kts 187°
2026-04-25 10:39 35.96751 114.98809 38016 ft 490 kts 187°
2026-04-25 10:40 35.89948 114.98108 38006 ft 491 kts 188°
2026-04-25 10:40 35.83166 114.97414 38025 ft 491 kts 188°
2026-04-25 10:41 35.76337 114.96724 38032 ft 491 kts 188°
2026-04-25 10:41 35.69510 114.96040 38037 ft 491 kts 187°
2026-04-25 10:42 35.62685 114.95356 38051 ft 491 kts 187°
2026-04-25 10:42 35.55873 114.94673 38064 ft 490 kts 187°
2026-04-25 10:43 35.49073 114.93990 38057 ft 490 kts 187°
2026-04-25 10:43 35.42317 114.93309 38072 ft 488 kts 187°
2026-04-25 10:44 35.35539 114.92633 38077 ft 488 kts 187°
2026-04-25 10:44 35.28774 114.91958 38081 ft 487 kts 187°
2026-04-25 10:45 35.22004 114.91278 38083 ft 486 kts 187°
2026-04-25 10:45 35.15247 114.90597 38084 ft 486 kts 187°
2026-04-25 10:46 35.08537 114.89933 38086 ft 486 kts 187°
2026-04-25 10:46 35.01791 114.89271 38079 ft 486 kts 187°
2026-04-25 10:47 34.95053 114.88594 38092 ft 485 kts 187°
2026-04-25 10:47 34.88316 114.87921 38096 ft 485 kts 187°
2026-04-25 10:48 34.81601 114.87257 38087 ft 485 kts 187°
2026-04-25 10:48 34.74853 114.86592 38096 ft 485 kts 187°
2026-04-25 10:49 34.68108 114.85932 38102 ft 485 kts 187°
2026-04-25 10:49 34.61372 114.85263 38103 ft 485 kts 187°
2026-04-25 10:50 34.54625 114.84604 38096 ft 485 kts 187°
2026-04-25 10:50 34.47907 114.83952 38102 ft 486 kts 187°
2026-04-25 10:51 34.41157 114.83288 38103 ft 486 kts 187°
2026-04-25 10:51 34.34404 114.82617 38098 ft 486 kts 187°
2026-04-25 10:52 34.27692 114.81956 38107 ft 486 kts 187°
2026-04-25 10:52 34.20938 114.81300 38111 ft 487 kts 187°
2026-04-25 10:53 34.14172 114.80644 38112 ft 487 kts 187°
2026-04-25 10:53 34.07399 114.79989 38108 ft 487 kts 187°
2026-04-25 10:54 34.00622 114.79342 38108 ft 488 kts 187°
2026-04-25 10:54 33.93872 114.78703 38116 ft 488 kts 187°
2026-04-25 10:55 33.88240 114.78164 38119 ft 488 kts 187°
2026-04-25 10:55 33.81454 114.77509 38124 ft 488 kts 187°
2026-04-25 10:56 33.74675 114.76829 38124 ft 488 kts 187°
2026-04-25 10:56 33.67892 114.76144 38121 ft 488 kts 187°
2026-04-25 10:57 33.61113 114.75517 38124 ft 489 kts 187°
2026-04-25 10:57 33.54321 114.74889 38123 ft 489 kts 187°
2026-04-25 10:58 33.47529 114.74186 38120 ft 489 kts 188°
2026-04-25 10:58 33.40740 114.73487 38112 ft 489 kts 187°
2026-04-25 10:59 33.33989 114.72836 38116 ft 489 kts 187°
2026-04-25 10:59 33.27181 114.72190 38119 ft 490 kts 187°
2026-04-25 11:00 33.20381 114.71534 38121 ft 490 kts 187°
2026-04-25 11:00 33.13578 114.70871 38121 ft 490 kts 187°
2026-04-25 11:01 33.06805 114.70198 38121 ft 490 kts 187°
2026-04-25 11:01 33.00002 114.69517 38123 ft 490 kts 187°
2026-04-25 11:02 32.93185 114.68844 38114 ft 490 kts 187°
2026-04-25 11:02 32.86381 114.68184 38117 ft 490 kts 187°
2026-04-25 11:03 32.79564 114.67533 38120 ft 490 kts 187°
2026-04-25 11:03 32.72791 114.66897 38122 ft 491 kts 187°
2026-04-25 11:04 32.65965 114.66262 38119 ft 491 kts 187°
2026-04-25 11:04 32.59137 114.65619 38118 ft 491 kts 187°
2026-04-25 11:05 32.52317 114.64976 38115 ft 491 kts 187°
2026-04-25 11:05 32.45540 114.64340 38106 ft 491 kts 187°
2026-04-25 11:06 32.38712 114.63703 38113 ft 491 kts 187°
2026-04-25 11:06 32.31888 114.63049 38113 ft 491 kts 187°
2026-04-25 11:07 32.25051 114.62384 38110 ft 491 kts 187°
2026-04-25 11:07 32.18230 114.61712 38108 ft 491 kts 187°
2026-04-25 11:08 32.11446 114.61050 38113 ft 492 kts 187°
2026-04-25 11:08 32.04614 114.60391 38118 ft 492 kts 187°
2026-04-25 11:09 31.97784 114.59728 38101 ft 492 kts 187°
2026-04-25 11:09 31.90965 114.59067 38118 ft 491 kts 188°
2026-04-25 11:10 31.84139 114.58404 38120 ft 491 kts 188°
2026-04-25 11:10 31.77324 114.57752 38120 ft 491 kts 187°
2026-04-25 11:11 31.70513 114.57102 38106 ft 490 kts 188°
2026-04-25 11:11 31.63733 114.56450 38115 ft 490 kts 188°
2026-04-25 11:12 31.56935 114.55794 38121 ft 490 kts 188°
2026-04-25 11:12 31.50129 114.55145 38119 ft 490 kts 188°
2026-04-25 11:13 31.43326 114.54495 38117 ft 490 kts 188°
2026-04-25 11:13 31.36564 114.53857 38116 ft 489 kts 188°
2026-04-25 11:14 31.29769 114.53206 38112 ft 489 kts 188°
2026-04-25 11:14 31.23123 114.51798 38094 ft 481 kts 204°
2026-04-25 11:15 31.17032 114.48703 38099 ft 476 kts 210°
2026-04-25 11:15 31.11012 114.45468 38115 ft 476 kts 210°
2026-04-25 11:16 31.01980 114.40637 38106 ft 476 kts 210°
2026-04-25 11:16 30.95987 114.37431 38079 ft 475 kts 210°
2026-04-25 11:17 30.89983 114.34193 38079 ft 475 kts 211°
2026-04-25 11:17 30.84049 114.30795 38076 ft 474 kts 212°
2026-04-25 11:18 30.78139 114.27366 38080 ft 474 kts 211°
2026-04-25 11:18 30.72165 114.24092 38078 ft 474 kts 210°
2026-04-25 11:19 30.66191 114.20907 38088 ft 474 kts 210°
2026-04-25 11:19 30.60198 114.17691 38093 ft 473 kts 210°
2026-04-25 11:20 30.55236 114.15002 38092 ft 472 kts 210°